Flag for Spain Weather past 2 weeks in Torrevieja, Spain

Now
61 °F

Passing clouds.


Feels Like: 61 °F
Forecast: 44 / 62 °F
Wind: 7 mph from East

Location: Murcia / San Javier

Current Time: Mar 5, 2015 at 1:52:39 PM

Latest Report: Mar 5, 2015 at 1:00 PM


Visibility: N/A

Pressure: 30.45 "Hg

Humidity: 25%

Dew point: 25 °F

Location of TorreviejaLocation

Historic Weather in Torrevieja — Graph

°F

Torrevieja temperature yesterday

Maximum temperature yesterday: 59 °F (at 12:00 PM)
Minimum temperature yesterday: 54 °F (at 7:00 AM)
Average temperature yesterday: 57 °F

Past Weeks' High & Low Weather Summary

 TemperatureHumidityPressure
High75 °F (Mar 1, 2:00 PM)94% (Mar 3, 4:00 PM)30.48 "Hg (Mar 3, 4:00 PM)
Low43 °F (Feb 21, 7:00 AM)15% (Feb 27, 6:00 PM)29.68 "Hg (Feb 21, 3:00 PM)
Average60 °F55%30.15 "Hg
* Reported Feb 18 12:00 Noon — Mar 5 12:00 Noon, Torrevieja, Weather by CustomWeather, © 2015

Note: Actual official high and low records may vary slightly from our data, if they occured in-between our weather recording intervals... More about our weather records

Advertising

Torrevieja weather history for previous 24 hours

 ConditionsComfort  
Time TempWeatherWind HumidityBarometerVisibility
12:00 PM
Thu, Mar 5
61 °FPassing clouds.7 mph23%30.48 "HgN/A
11:00 AM59 °FPassing clouds.10 mph23%30.48 "HgN/A
10:00 AM55 °FSunny.9 mph28%30.48 "Hg10 mi
9:00 AM52 °FPassing clouds.7 mph35%30.48 "HgN/A
8:00 AM48 °FSunny.12 mph40%30.45 "Hg10 mi
7:00 AM43 °FClear.7 mph53%30.45 "Hg10 mi
10:00 PM
Wed, Mar 4
54 °FClear.3 mph88%30.39 "Hg10 mi
9:00 PM54 °FClear.No wind94%30.39 "Hg10 mi
8:00 PM57 °FClear.2 mph88%30.36 "Hg10 mi
7:00 PM57 °FPassing clouds.6 mph94%30.33 "HgN/A
6:00 PM59 °FPassing clouds.3 mph88%30.30 "HgN/A
5:00 PM59 °FClear.1 mph88%30.27 "Hg6 mi
4:00 PM59 °FPassing clouds.5 mph82%30.27 "Hg6 mi
3:00 PM59 °FScattered clouds.5 mph82%30.27 "Hg6 mi
2:00 PM59 °FPartly sunny.8 mph82%30.27 "Hg6 mi
1:00 PM59 °FFog.7 mph82%30.30 "Hg2 mi
Weather by CustomWeather, © 2015

See weather overviewHow to use our weather pages